TimeMST,TemperatureF,Dew PointF,Humidity,Sea Level PressureIn,VisibilityMPH,Wind Direction,Wind SpeedMPH,Gust SpeedMPH,PrecipitationIn,Events,Conditions,WindDirDegrees,DateUTC
12:53 AM,19.9,17.1,89,29.44,10.0,North,8.1,-,N/A,,Clear,350,2011-11-19 07:53:00
1:53 AM,21.0,18.0,88,29.46,10.0,North,13.8,-,N/A,,Clear,360,2011-11-19 08:53:00
2:53 AM,19.0,17.1,92,29.49,10.0,NNE,8.1,-,N/A,,Clear,20,2011-11-19 09:53:00
3:44 AM,19.4,15.8,86,29.54,10.0,NNW,12.7,-,N/A,,Scattered Clouds,340,2011-11-19 10:44:00
3:53 AM,19.9,18.0,92,29.60,10.0,NNW,15.0,-,N/A,,Mostly Cloudy,330,2011-11-19 10:53:00
4:53 AM,25.0,21.9,88,29.67,10.0,North,16.1,-,N/A,,Overcast,350,2011-11-19 11:53:00
5:53 AM,26.1,24.1,92,29.70,10.0,North,12.7,-,N/A,,Overcast,360,2011-11-19 12:53:00
6:53 AM,25.0,21.9,88,29.75,10.0,North,13.8,-,N/A,,Overcast,10,2011-11-19 13:53:00
7:53 AM,25.0,23.0,92,29.79,9.0,North,9.2,-,N/A,,Overcast,350,2011-11-19 14:53:00
8:53 AM,25.0,21.9,88,29.78,10.0,NW,4.6,-,N/A,,Overcast,320,2011-11-19 15:53:00
9:53 AM,27.0,23.0,85,29.81,10.0,NW,12.7,-,N/A,,Overcast,310,2011-11-19 16:53:00
10:40 AM,28.4,23.0,80,29.76,10.0,NW,9.2,-,N/A,,Overcast,320,2011-11-19 17:40:00
10:53 AM,28.9,23.0,78,29.86,10.0,NNW,8.1,-,N/A,,Overcast,330,2011-11-19 17:53:00
11:20 AM,30.2,23.0,75,29.77,10.0,NW,8.1,-,N/A,,Overcast,320,2011-11-19 18:20:00
11:53 AM,33.1,23.0,66,29.86,10.0,Variable,5.8,-,N/A,,Scattered Clouds,0,2011-11-19 18:53:00
12:53 PM,36.0,23.0,59,29.86,10.0,North,5.8,-,N/A,,Clear,10,2011-11-19 19:53:00
2:53 PM,35.1,23.0,61,29.95,10.0,East,11.5,-,N/A,,Clear,90,2011-11-19 21:53:00
3:53 PM,33.1,23.0,66,30.00,10.0,SE,5.8,-,N/A,,Clear,130,2011-11-19 22:53:00
4:53 PM,28.9,21.0,72,30.02,10.0,SE,4.6,-,N/A,,Clear,130,2011-11-19 23:53:00
6:53 PM,25.0,19.0,78,30.09,10.0,SE,5.8,-,N/A,,Clear,140,2011-11-20 01:53:00
7:53 PM,21.9,18.0,85,30.11,10.0,SE,4.6,-,N/A,,Clear,140,2011-11-20 02:53:00
8:53 PM,25.0,19.9,81,30.10,10.0,South,8.1,-,N/A,,Clear,180,2011-11-20 03:53:00
9:53 PM,23.0,19.0,85,30.12,10.0,South,9.2,-,N/A,,Clear,190,2011-11-20 04:53:00
10:53 PM,19.9,17.1,89,30.15,10.0,SE,8.1,-,N/A,,Mostly Cloudy,130,2011-11-20 05:53:00
11:53 PM,18.0,16.0,92,30.15,10.0,SE,8.1,-,N/A,,Clear,140,2011-11-20 06:53:00